Other Public Products
Issued by NWS Grand Forks, ND

Home | Current Version | Previous Version | Graphics & Text | Print | Product List | Glossary On
Versions: 1 2 3 4 5 6 7 8 9 10 11 12 13 14 15 16 17 18 19 20 21 22 23 24 25 26 27 28 29 30 31 32 33 34 35 36 37 38 39 40 41 42 43 44 45 46 47 48 49 50
000
FPUS83 KFGF 222231
OPUFGF
PRAIRIE TO PINES WEATHER ROUNDUP
NATIONAL WEATHER SERVICE EASTERN NORTH DAKOTA/GRAND FORKS ND
500 PM CDT TUE JUL 22 2014

 **SATELLITE DATA USED TO AUGMENT SKY COVER AT AUTOMATED STATIONS**
 *****  WEATHER ACROSS EASTERN NORTH DAKOTA  *****

CITY           SKY/WX    TMP DP  RH WIND       PRES   REMARKS
GRAND FORKS    MOSUNNY   77  59  53 N12       30.16S
GRAND FORKS AF SUNNY     76  59  55 N12       30.18S
GRAND CITY NWS   N/A     77 N/A N/A N12         N/A
BUXTON           N/A     79  60  51 NW9         N/A
DEVILS LAKE    PTSUNNY   75  57  53 NW5       30.19S
FARGO          SUNNY     79  57  46 N20       30.16R
WAHPETON ARPT  CLEAR     77  54  44 N12G21    30.17R
$$

 *****  WEATHER ACROSS CENTRAL AND WESTERN NORTH DAKOTA  *****

CITY           SKY/WX    TMP DP  RH WIND       PRES   REMARKS
JAMESTOWN      MOSUNNY   77  58  51 VRB6      30.19S
BISMARCK       MOSUNNY   82  59  45 VRB6      30.20F
MINOT          MOSUNNY   76  60  57 VRB3      30.19F
MINOT AFB      MOSUNNY   77  60  57 NE7       30.19F
GARRISON         N/A     78  62  57 SW3       30.20S
WILLISTON      SUNNY     87  52  29 VRB7      30.17S
DICKINSON      SUNNY     77  61  57 E9        30.20F
HETTINGER      PTSUNNY   81  61  50 E12       30.21F
$$

 *****  OTHER OBSERVATIONS NORTHEAST NORTH DAKOTA  *****

CITY           SKY/WX    TMP DP  RH WIND       PRES   REMARKS
WALHALLA         N/A     75  54  46 N9          N/A
LANGDON        FAIR      75  55  50 N9        30.21S
CAVALIER       FAIR      75  54  46 N9        30.18S
GRAFTON          N/A     75  57  53 N10       30.17S
CANDO          MOCLDY    75  59  57 N3        30.21S
FORT TOTTEN      N/A     80  60  50 NW2       29.95S
ROLLA            N/A     75  57  53 NW5       30.23S
RUGBY          FAIR      75  59  57 NW3       30.20S
 ***** THE ABOVE OBSERVATIONS ARE NON NWS ARE NOT QUALITY
        CONTROLLED AND MAY MIS-REPORT RAIN FOR SNOW...
$$

 *****  OTHER OBSERVATIONS SOUTHEAST NORTH DAKOTA *****

CITY           SKY/WX    TMP DP  RH WIND       PRES   REMARKS
COOPERSTOWN    NOT AVBL
VALLEY CITY    FAIR      77  57  50 N8        30.20R
OAKES          NOT AVBL
GWINNER        CLEAR     79  57  47 N12       30.20R
BUFFALO        NOT AVBL
WYNDMERE       NOT AVBL
 ***** THE ABOVE OBSERVATIONS ARE NON NWS ARE NOT QUALITY
       CONTROLLED AND MAY MIS-REPORT RAIN FOR SNOW...
$$

  *****  WEATHER ACROSS NORTHERN MINNESOTA  *****

CITY           SKY/WX    TMP DP  RH WIND       PRES   REMARKS
FLAG ISLAND    SUNNY     73  52  46 N16       30.11S
WARROAD        MOSUNNY   75  55  50 NW14G20   30.14S
ROSEAU         MOSUNNY   75  55  50 N13       30.15R
HALLOCK        SUNNY     77  52  41 NW10G16   30.16S
THF RVR FALLS  MOSUNNY   73  54  49 NW13      30.17R
HALSTAD          N/A     76  54  44 N13         N/A
FOSSTON        SUNNY     75  55  50 NW14      30.17R
BAUDETTE       SUNNY     75  51  43 NW13      30.13S
WASKISH        MOSUNNY   75  55  50 N8        30.13R
CROOKSTON      SUNNY     75  57  53 N14       30.18R
$$
  *****  WEATHER ACROSS CENTRAL AND WEST MINNESOTA  *****

CITY           SKY/WX    TMP DP  RH WIND       PRES   REMARKS
BEMIDJI        SUNNY     74  51  44 N13G18    30.14R
PARK RAPIDS    SUNNY     76  49  38 NW21G26   30.13R
WADENA         SUNNY     75  54  46 N13G21    30.14R
DETROIT LAKES  MOSUNNY   73  55  53 N16G23    30.18R
MOORHEAD       MOSUNNY   75  63  64 N13       30.17S
FERGUS FALLS   SUNNY     75  52  43 N10G21    30.15R
ELBOW LAKE     FAIR      75  57  53 N14G21    30.16R
MORRIS MN      SUNNY     79  57  47 N10       30.15R
STAPLES        MOSUNNY   77  46  33 N15G23    30.12R
WHEATON        SUNNY     75  57  53 N12G18    30.19R
$$
  *****  WEATHER ELSEWHERE ACROSS MINNESOTA  *****

CITY           SKY/WX    TMP DP  RH WIND       PRES   REMARKS
DULUTH         MOSUNNY   78  56  46 NW13G21   30.05R
INTRNTL FALLS  MOSUNNY   76  54  46 NW10      30.09R
ELY            PTSUNNY   72  52  49 N7        30.08R
CLOQUET        MOSUNNY   77  54  44 N13G21    30.07R
BRAINERD       MOSUNNY   77  53  43 N14       30.10R
HIBBING        MOSUNNY   76  54  46 N13       30.08R
ALEXANDRIA     MOSUNNY   77  52  41 N16       30.16R
SAINT CLOUD    MOSUNNY   81  52  36 N13G20    30.08R
MINNEAPOLIS    MOSUNNY   86  56  35 N12       30.05R
$$

  *****  WEATHER ACROSS SOUTH DAKOTA  *****

CITY           SKY/WX    TMP DP  RH WIND       PRES   REMARKS
SIOUX FALLS    MOSUNNY   82  62  50 NE8       30.17R
BROOKINGS      NOT AVBL
WATERTOWN      SUNNY     79  56  45 NE15G21   30.19R
HURON          SUNNY     83  59  44 N12       30.17S
SISSETON         N/A     80  59  48 NE10      30.17R
ABERDEEN       MOSUNNY   80  61  52 NE10      30.19R
MITCHELL       SUNNY     84  61  45 MISG      30.17F
PIERRE         SUNNY     86  57  37 SE8       30.17S
MOBRIDGE       SUNNY     84  59  42 VRB5      30.17S
RAPID CITY     SUNNY     80  64  58 SE8       30.21F
$$

  *****  SOME WEATHER IN NEARBY STATES *****

CITY           SKY/WX    TMP DP  RH WIND       PRES   REMARKS
GLASGOW MT     PTSUNNY   84  50  30 N6        30.17S
GREAT FALLS MT SUNNY     86  48  26 NE9       30.15F
CHEYENNE WY    SUNNY     82  49  31 SE3       30.37S
SCOTTSBLUFF NE SUNNY     92  59  33 E14       30.21F HX  91
OMAHA NE       MOSUNNY   90  69  50 NE14      30.06S HX  94
DES MOINES IA  MOSUNNY   91  74  57 N12       30.01S HX 100
DAVENPORT IA   PTSUNNY   86  78  77 W9        29.97R HX  98
CHICAGO IL     CLOUDY    88  71  57 W10       29.94R HX  94
EAU CLAIRE WI  MOSUNNY   83  62  49 N10       30.01R
LA CROSSE WI   SUNNY     88  66  48 NW15      29.97S HX  90
$$

  *****  SOME NATIONAL WEATHER *****

CITY           SKY/WX    TMP DP  RH WIND       PRES   REMARKS
LA GUARDIA NY  MOSUNNY   83  65  54 S16G22    30.06S
RALEIGH NC     PTSUNNY   85  71  63 VRB3      30.10S HX  90
ATLANTA GA     PTSUNNY   82  70  66 E8        30.07F
NEW ORLEANS LA PTSUNNY   86  73  65 S12       30.00R HX  93
OKLAHOMA CITY  MOSUNNY   96  68  39 CALM      30.06F HX 101
ALBUQUERQUE NM PTSUNNY   92  48  22 E31G40    30.22S
SALT LAKE CITY MOSUNNY   97  34  11 NE9       30.13F HX  91
LOS ANGELES CA MOSUNNY   75  61  60 W21       30.02F
BOISE ID       CLOUDY    92  46  20 N9        30.08F
SEATTLE WA     DRIZZLE   62  57  83 W5        30.10S
$$

*** WEATHER ACROSS MANITOBA...SASKATCHEWAN AND ONTARIO ***
                ***ONTARIO***

CITY           SKY/WX    TMP DP  RH WIND       PRES   REMARKS
GERALDTON      CLOUDY   N/A N/A N/A NW17        N/A
THUNDER BAY    PTSUNNY   68  55  64 MISG      30.01R
SIOUX LOOKOUT  PTSUNNY   66  54  63 N8        30.08R
TORONTO        MOSUNNY   82  63  51 S13       29.97F
BIG TROUT LK   PTSUNNY   68  41  37 N9G18     30.08R
PICKLE LAKE    CLOUDY    66  46  48 NW5       30.05R
DRYDEN         PTSUNNY   70  54  56 N9G18     30.09R
KENORA         PTSUNNY   73  54  49 NW14G23   30.12R
$$
                *** MANITOBA***

CITY           SKY/WX    TMP DP  RH WIND       PRES   REMARKS
BRANDON        MOSUNNY   79  52  38 NE6       30.20
DAUPHIN        MOSUNNY   73  59  60 NE14      30.22R
ISLAND LAKE    MOSUNNY   68  46  45 N9        30.18R
PILOT MOUND      N/A     73  54  49 N5          N/A
THE PAS        MOSUNNY   72  46  40 CALM      30.22S
THOMPSON       PTSUNNY   70  52  52 W6        30.18F
WINNIPEG       MOSUNNY   77  54  44 NW15G21   30.17S
LYNN LAKE      SUNNY     72  43  35 W7        30.21S
CHURCHILL      MOSUNNY   66  52  59 E12       30.06R
GILLAM         MOSUNNY   68  48  49 W7        30.14S
$$
                ***SASKATCHEWAN***

CITY           SKY/WX    TMP DP  RH WIND       PRES   REMARKS
ESTEVAN        PTSUNNY   77  61  57 E9        30.22R
KINDERSLEY     PTSUNNY   75  57  53 S12       30.21F
LLOYDMINSTER   PTSUNNY   73  54  49 SE8       30.21S
PRINCE ALBERT  PTSUNNY   75  50  41 S5        30.23F
REGINA         PTSUNNY   79  50  36 VRB9      30.23F
YORKTON        SUNNY     75  52  43 N8        30.24S



USA.gov is the U.S. government's official web portal to all federal, state and local government web resources and services.